Owosso, MI

12:21 PM EST on December 07, 2016 (GMT -0500)
Owosso

Weather History for KRNP - January, 2014

Change the Weather History Date:

Wednesday, January 8, 2014

  Actual Average (KFNT) Record (KFNT)
Temperature  
Mean Temperature 7 °F 23 °F  
Max Temperature 17 °F 30 °F 60 °F (1965)
Min Temperature -3 °F 16 °F -10 °F (1986)
Degree Days  
Heating Degree Days 58 42  
Month to date heating degree days 335  
Since 1 July heating degree days 2980  
Cooling Degree Days 0 0  
Month to date cooling degree days 0  
Year to date cooling degree days 0  
Moisture  
Dew Point 1 °F    
Average Humidity 78    
Maximum Humidity 92    
Minimum Humidity 66    
Precipitation  
Precipitation 0.00 in 0.05 in 1.12 in (1935)
Month to date precipitation 0.46  
Year to date precipitation 0.46  
Snow  
Snow 0.00 in 0.40 in 2.70 in ()
Month to date snowfall 3.4  
Since 1 July snowfall 18.1  
Snow Depth -    
Sea Level Pressure  
Sea Level Pressure 30.34 in    
Wind  
Wind Speed 7 mph (SW)    
Max Wind Speed 10 mph    
Max Gust Speed 16 mph    
Visibility 10 miles    
Events Snow    
T = Trace of Precipitation, MM = Missing Value Source: NWS Daily Summary

Daily Weather History Graph

Daily Weather History Graph

Search for Another Location

Airport or City:

Trip Planner

Search our weather history database for the weather conditions in past years. The results will help you decide how hot, cold, wet, or windy it might be!

Date:

Astronomy

Jan. 08, 2014 Rise Set
Actual Time 8:07 AM EST 5:19 PM EST
Civil Twilight 7:35 AM EST 5:51 PM EST
Nautical Twilight 7:00 AM EST 6:26 PM EST
Astronomical Twilight 6:25 AM EST 7:01 PM EST
Moon 12:16 PM EST (1/8) 1:06 AM EST (1/8)
Length of Visible Light 10h 15m
Length of Day
9h 12m
First Quarter, 56% of the Moon is Illuminated
Jan 8
First Quarter
Jan 15
Full
Jan 24
Last Quarter
Jan 30
New
Feb 6
First Quarter

Hourly Weather History & Observations

Time (EST) Temp. Windchill Dew Point Humidity Pressure Visibility Wind Dir Wind Speed Gust Speed Precip Events Conditions
12:15 AM 1.9 °F -11.8 °F -5.1 °F 72% 30.25 in 10.0 mi SSW 8.1 mph - N/A   Scattered Clouds
12:34 AM 2.5 °F -11.1 °F -4.2 °F 74% 30.25 in 10.0 mi SSW 8.1 mph - N/A   Mostly Cloudy
12:55 AM 3.2 °F -9.1 °F -3.5 °F 74% 30.25 in 10.0 mi SSW 6.9 mph - N/A   Overcast
1:15 AM 4.1 °F -10.2 °F -2.6 °F 74% 30.26 in 10.0 mi SW 9.2 mph - N/A Snow Light Snow
1:34 AM 4.6 °F -9.5 °F -2.2 °F 73% 30.26 in 10.0 mi SSW 9.2 mph - N/A Snow Light Snow
1:55 AM 4.5 °F -10.7 °F -2.2 °F 74% 30.26 in 10.0 mi SSW 10.4 mph - N/A Snow Light Snow
2:15 AM 4.1 °F -9.2 °F -2.2 °F 75% 30.27 in 10.0 mi SSW 8.1 mph - N/A   Clear
2:34 AM 3.9 °F -8.2 °F -2.6 °F 74% 30.27 in 10.0 mi South 6.9 mph - N/A Snow Light Snow
2:55 AM 3.4 °F -10.0 °F -2.9 °F 75% 30.28 in 10.0 mi SSW 8.1 mph - N/A   Clear
3:15 AM 3.0 °F -10.5 °F -3.5 °F 74% 30.28 in 10.0 mi SSW 8.1 mph - N/A   Clear
3:35 AM 2.3 °F -10.2 °F -4.0 °F 75% 30.28 in 10.0 mi SSW 6.9 mph - N/A   Clear
3:55 AM 2.3 °F -10.2 °F -3.6 °F 76% 30.28 in 10.0 mi SW 6.9 mph - N/A   Clear
4:14 AM 2.3 °F -11.4 °F -3.5 °F 77% 30.28 in 10.0 mi SSW 8.1 mph - N/A   Clear
4:35 AM 2.1 °F -9.0 °F -3.3 °F 78% 30.28 in 10.0 mi SSW 5.8 mph - N/A   Clear
4:55 AM 2.3 °F -10.2 °F -3.1 °F 78% 30.28 in 10.0 mi SW 6.9 mph - N/A   Clear
5:14 AM 2.3 °F -10.2 °F -2.9 °F 79% 30.28 in 10.0 mi SSW 6.9 mph - N/A   Clear
5:35 AM 1.4 °F -11.3 °F -3.6 °F 79% 30.29 in 10.0 mi SSW 6.9 mph - N/A   Clear
5:55 AM 1.0 °F -11.7 °F -3.5 °F 81% 30.29 in 10.0 mi SSW 6.9 mph - N/A Snow Light Snow
6:14 AM 0.3 °F -12.6 °F -4.0 °F 82% 30.29 in 10.0 mi South 6.9 mph - N/A Snow Light Snow
6:35 AM -0.6 °F -12.2 °F -4.5 °F 83% 30.29 in 10.0 mi SSW 5.8 mph - N/A   Clear
6:55 AM -0.9 °F -11.0 °F -4.7 °F 84% 30.29 in 10.0 mi South 4.6 mph - N/A   Clear
7:14 AM -1.3 °F -9.3 °F -4.9 °F 85% 30.30 in 10.0 mi SSW 3.5 mph - N/A   Clear
7:35 AM -1.1 °F -12.9 °F -4.5 °F 85% 30.30 in 10.0 mi SSW 5.8 mph - N/A   Clear
7:55 AM -0.9 °F -11.0 °F -4.5 °F 85% 30.31 in 10.0 mi SSW 4.6 mph - N/A   Clear
8:15 AM -1.5 °F - -5.1 °F 85% 30.32 in 10.0 mi Calm Calm - N/A   Clear
8:35 AM -2.2 °F -12.5 °F -5.8 °F 85% 30.32 in 10.0 mi South 4.6 mph - N/A   Clear
8:54 AM -1.3 °F -11.4 °F -4.7 °F 85% 30.33 in 10.0 mi SSW 4.6 mph - N/A   Clear
9:15 AM -0.2 °F - -4.2 °F 83% 30.34 in 10.0 mi Calm Calm - N/A   Clear
9:35 AM 1.9 °F -7.6 °F -3.1 °F 79% 30.34 in 10.0 mi SW 4.6 mph - N/A   Clear
9:54 AM 3.0 °F -9.3 °F -2.2 °F 79% 30.35 in 10.0 mi SSW 6.9 mph - N/A   Clear
10:15 AM 4.5 °F -4.7 °F -1.8 °F 75% 30.36 in 10.0 mi South 4.6 mph - N/A   Clear
10:34 AM 5.5 °F -3.4 °F -0.9 °F 75% 30.36 in 10.0 mi South 4.6 mph - N/A   Clear
10:55 AM 6.8 °F -2.0 °F -0.0 °F 74% 30.36 in 10.0 mi South 4.6 mph - N/A   Mostly Cloudy
11:15 AM 9.3 °F -0.5 °F 2.1 °F 73% 30.35 in 10.0 mi South 5.8 mph - N/A   Overcast
11:34 AM 11.3 °F 1.9 °F 3.2 °F 70% 30.35 in 10.0 mi SSW 5.8 mph - N/A   Mostly Cloudy
11:55 AM 12.0 °F 0.5 °F 3.9 °F 70% 30.34 in 10.0 mi SSW 8.1 mph - N/A   Mostly Cloudy
12:15 PM 13.6 °F 3.5 °F 5.4 °F 70% 30.33 in 10.0 mi SSW 6.9 mph - N/A   Mostly Cloudy
12:34 PM 14.2 °F 3.1 °F 5.7 °F 69% 30.32 in 10.0 mi SW 8.1 mph - N/A   Mostly Cloudy
12:55 PM 15.3 °F 4.4 °F 6.8 °F 69% 30.32 in 10.0 mi SW 8.1 mph - N/A   Mostly Cloudy
1:15 PM 16.0 °F 6.3 °F 7.3 °F 69% 30.31 in 10.0 mi WSW 6.9 mph - N/A   Scattered Clouds
1:35 PM 17.4 °F 6.2 °F 8.2 °F 67% 30.31 in 10.0 mi West 9.2 mph - N/A   Mostly Cloudy
1:55 PM 16.7 °F 5.3 °F 7.7 °F 68% 30.31 in 10.0 mi WSW 9.2 mph 16.1 mph N/A   Overcast
2:15 PM 16.2 °F 5.5 °F 7.7 °F 69% 30.31 in 10.0 mi SW 8.1 mph - N/A   Overcast
2:35 PM 17.4 °F 5.4 °F 8.6 °F 68% 30.31 in 10.0 mi WSW 10.4 mph - N/A   Mostly Cloudy
2:55 PM 17.6 °F 5.7 °F 8.1 °F 66% 30.32 in 10.0 mi SSW 10.4 mph - N/A   Mostly Cloudy
3:14 PM 17.6 °F 6.4 °F 8.4 °F 67% 30.32 in 10.0 mi SW 9.2 mph - N/A   Mostly Cloudy
3:35 PM 17.4 °F 6.2 °F 8.2 °F 67% 30.33 in 10.0 mi SW 9.2 mph - N/A   Scattered Clouds
3:55 PM 16.7 °F 5.3 °F 8.2 °F 69% 30.34 in 10.0 mi WSW 9.2 mph 16.1 mph N/A   Clear
4:14 PM 16.7 °F 5.3 °F 8.1 °F 69% 30.34 in 10.0 mi WSW 9.2 mph - N/A   Clear
4:35 PM 15.8 °F 7.2 °F 7.5 °F 70% 30.35 in 10.0 mi WSW 5.8 mph - N/A   Scattered Clouds
4:54 PM 15.6 °F 4.0 °F 7.5 °F 70% 30.35 in 10.0 mi WSW 9.2 mph - N/A   Mostly Cloudy
5:15 PM 15.4 °F 6.8 °F 8.2 °F 73% 30.36 in 10.0 mi WSW 5.8 mph - N/A   Overcast
5:35 PM 15.1 °F 6.4 °F 8.4 °F 75% 30.36 in 10.0 mi WSW 5.8 mph - N/A   Overcast
5:54 PM 14.2 °F 5.3 °F 7.7 °F 75% 30.37 in 10.0 mi WSW 5.8 mph - N/A   Scattered Clouds
6:15 PM 14.0 °F 5.1 °F 8.1 °F 77% 30.38 in 10.0 mi SW 5.8 mph - N/A   Scattered Clouds
6:35 PM 12.7 °F 3.6 °F 6.6 °F 77% 30.38 in 10.0 mi WSW 5.8 mph - N/A   Clear
6:55 PM 11.1 °F 1.7 °F 5.9 °F 80% 30.39 in 10.0 mi West 5.8 mph - N/A Snow Light Snow
7:15 PM 10.8 °F 2.7 °F 5.9 °F 81% 30.39 in 10.0 mi WSW 4.6 mph - N/A   Clear
7:35 PM 10.4 °F 2.2 °F 6.3 °F 83% 30.40 in 7.0 mi WSW 4.6 mph - N/A Snow Light Snow
7:55 PM 10.4 °F 4.0 °F 6.4 °F 84% 30.41 in 7.0 mi WSW 3.5 mph - N/A Snow Light Snow
8:15 PM 10.0 °F 3.6 °F 6.8 °F 87% 30.42 in 5.0 mi WSW 3.5 mph - N/A Snow Light Snow
8:34 PM 9.0 °F 0.6 °F 6.1 °F 88% 30.42 in 10.0 mi West 4.6 mph - N/A Snow Light Snow
8:55 PM 8.4 °F 1.8 °F 5.9 °F 89% 30.44 in 5.0 mi WSW 3.5 mph - N/A Snow Light Snow
9:15 PM 8.8 °F 2.2 °F 6.1 °F 89% 30.44 in 7.0 mi WSW 3.5 mph - N/A Snow Light Snow
9:34 PM 3.9 °F - 1.2 °F 89% 30.45 in 10.0 mi Calm Calm - N/A   Mostly Cloudy
9:55 PM 3.9 °F - 1.8 °F 91% 30.46 in 10.0 mi Calm Calm - N/A   Overcast
10:15 PM 5.2 °F - 3.4 °F 92% 30.46 in 10.0 mi Calm Calm - N/A   Scattered Clouds
10:35 PM 1.6 °F - -1.1 °F 88% 30.47 in 10.0 mi Calm Calm - N/A   Scattered Clouds
10:55 PM 2.7 °F - -0.0 °F 88% 30.47 in 7.0 mi Calm Calm - N/A   Scattered Clouds
11:15 PM -0.9 °F - -3.8 °F 88% 30.47 in 4.0 mi Calm Calm - N/A   Clear
11:35 PM -3.3 °F - -6.7 °F 85% 30.48 in 10.0 mi Calm Calm - N/A   Scattered Clouds
11:55 PM -0.9 °F - -4.0 °F 87% 30.49 in 7.0 mi Calm Calm - N/A   Mostly Cloudy